KAC107 RPLL-VTBS

Flight info

Callsign KAC107
Flight time N/A
Altitude 38000
Route SIRCA2R SIRCA L628 DODUS/N0473F340 L628 ARESI/K0885F380 L628 PCA G474 ANINA/N0475F380 G474 VEMKO M633 DULEM TUMGA1C
Aircraft B77W/H-SDE1E2E3FGHIJ2J3J4J5M1RWXY/LB1D1

Departure

Time N/A
Airport Ninoy Aquino International Airport (RPLL)

Arrival

Time 2026-05-07 23:38
Airport Suvarnabhumi Airport (VTBS)
Time Latitude Longitude Altitude Speed Heading
2026-05-07 23:24 13.59164 101.11123 13948 ft 338 kts 283°
2026-05-07 23:25 13.59732 101.08784 13595 ft 337 kts 284°
2026-05-07 23:25 13.60317 101.06458 13242 ft 334 kts 284°
2026-05-07 23:25 13.60910 101.04181 12903 ft 332 kts 285°
2026-05-07 23:25 13.61509 101.01895 12558 ft 329 kts 285°
2026-05-07 23:26 13.62104 100.99628 12218 ft 328 kts 285°
2026-05-07 23:26 13.62698 100.97367 11953 ft 325 kts 285°
2026-05-07 23:26 13.63288 100.95121 11666 ft 326 kts 285°
2026-05-07 23:26 13.63873 100.92888 11331 ft 328 kts 285°
2026-05-07 23:27 13.64965 100.88359 10630 ft 319 kts 273°
2026-05-07 23:27 13.64670 100.86140 10338 ft 312 kts 248°
2026-05-07 23:27 13.63543 100.84273 10024 ft 306 kts 225°
2026-05-07 23:28 13.61909 100.82911 9716 ft 301 kts 208°
2026-05-07 23:28 13.60016 100.82146 9417 ft 294 kts 193°
2026-05-07 23:28 13.58035 100.81628 9116 ft 291 kts 192°
2026-05-07 23:28 13.56077 100.81128 8805 ft 289 kts 193°
2026-05-07 23:29 13.54153 100.80627 8514 ft 287 kts 193°
2026-05-07 23:29 13.52218 100.80109 8220 ft 284 kts 193°
2026-05-07 23:29 13.50308 100.79592 7927 ft 282 kts 193°
2026-05-07 23:29 13.48437 100.79082 7644 ft 280 kts 194°
2026-05-07 23:30 13.46561 100.78571 7349 ft 277 kts 194°
2026-05-07 23:30 13.44688 100.78058 6972 ft 279 kts 194°
2026-05-07 23:30 13.42809 100.77543 6670 ft 277 kts 194°
2026-05-07 23:30 13.40969 100.77041 6364 ft 275 kts 194°
2026-05-07 23:31 13.39122 100.76536 6073 ft 273 kts 194°
2026-05-07 23:31 13.37363 100.75877 5771 ft 266 kts 213°
2026-05-07 23:31 13.36115 100.74504 5529 ft 265 kts 241°
2026-05-07 23:31 13.35602 100.72711 5264 ft 267 kts 266°
2026-05-07 23:32 13.35889 100.70840 5033 ft 265 kts 293°
2026-05-07 23:32 13.37002 100.69371 4800 ft 261 kts 324°
2026-05-07 23:32 13.38638 100.68682 4553 ft 258 kts 353°
2026-05-07 23:32 13.40410 100.68754 4285 ft 252 kts
2026-05-07 23:33 13.42135 100.69021 4022 ft 247 kts 11°
2026-05-07 23:33 13.43760 100.69402 3731 ft 230 kts 13°
2026-05-07 23:33 13.45238 100.69790 3494 ft 210 kts 13°
2026-05-07 23:33 13.46625 100.70160 3364 ft 205 kts 13°
2026-05-07 23:34 13.47991 100.70521 3136 ft 202 kts 13°
2026-05-07 23:34 13.49328 100.70877 3086 ft 193 kts 13°
2026-05-07 23:34 13.50624 100.71219 3027 ft 197 kts 13°
2026-05-07 23:34 13.51965 100.71570 2753 ft 197 kts 13°
2026-05-07 23:35 13.53267 100.71913 2505 ft 193 kts 14°
2026-05-07 23:35 13.54570 100.72256 2241 ft 191 kts 14°
2026-05-07 23:35 13.55816 100.72585 1987 ft 178 kts 15°
2026-05-07 23:35 13.56926 100.72878 1758 ft 159 kts 15°
2026-05-07 23:36 13.57953 100.73148 1565 ft 151 kts 15°
2026-05-07 23:36 13.58974 100.73417 1383 ft 151 kts 15°
2026-05-07 23:36 13.59983 100.73684 1180 ft 148 kts 15°
2026-05-07 23:36 13.60962 100.73942 980 ft 146 kts 15°
2026-05-07 23:37 13.61949 100.74204 795 ft 146 kts 15°
2026-05-07 23:37 13.62937 100.74463 612 ft 147 kts 15°
2026-05-07 23:37 13.63913 100.74720 406 ft 145 kts 14°
2026-05-07 23:37 13.64903 100.74980 219 ft 146 kts 15°
2026-05-07 23:38 13.65817 100.75220 66 ft 145 kts 15°
2026-05-07 23:38 13.66816 100.75480 26 ft 140 kts 15°
2026-05-07 23:38 13.67685 100.75713 16 ft 115 kts 14°
2026-05-07 23:38 13.68195 100.75836 18 ft 35 kts 357°
2026-05-07 23:39 13.68382 100.75798 18 ft 0 kts 344°
2026-05-07 23:39 13.68394 100.75791 18 ft 12 kts 330°
2026-05-07 23:39 13.68443 100.75697 18 ft 15 kts 285°
2026-05-07 23:40 13.68469 100.75597 18 ft 15 kts 285°
2026-05-07 23:40 13.68495 100.75496 18 ft 15 kts 285°
2026-05-07 23:40 13.68521 100.75395 18 ft 15 kts 285°
2026-05-07 23:40 13.68547 100.75294 19 ft 15 kts 285°
2026-05-07 23:41 13.68573 100.75194 18 ft 15 kts 291°
2026-05-07 23:41 13.68610 100.75098 18 ft 12 kts 313°
2026-05-07 23:41 13.68691 100.75084 18 ft 12 kts 11°
2026-05-07 23:41 13.68773 100.75104 19 ft 12 kts 13°
2026-05-07 23:42 13.68856 100.75125 18 ft 12 kts 14°
2026-05-07 23:42 13.68940 100.75136 18 ft 12 kts 342°
2026-05-07 23:42 13.68983 100.75075 18 ft 9 kts 308°
2026-05-07 23:42 13.69013 100.75062 18 ft 1 kts 352°
2026-05-07 23:43 13.69025 100.75062 18 ft 2 kts
2026-05-07 23:43 13.69046 100.75065 19 ft 4 kts
2026-05-07 23:43 13.69060 100.75069 18 ft 1 kts 13°
2026-05-07 23:43 13.69065 100.75070 18 ft 0 kts 13°